Back to catalog

STARLINK-4655

AliveCommunicationsVLEO
NORAD 53613·PAYLOAD·🇺🇸 United States

Launched Aug 28, 2022 from Cape Canaveral Space Force Station

Loading…

Next Passes (next 24 hours)

TLE

FreshSource: CelesTrak SupGP

Epoch: Sep 14, 2026, 14:55 UTC

1 53613C 22104AB  26257.62201389 -.00022046  00000+0 -63075-3 0  2576
2 53613  53.1582  95.4606 0001453 100.2899  69.5803 15.35409747    13

Track STARLINK-4655 in real time with AllMySat

Download on the App Store